Regional Weather Roundup
Issued by NWS

Home | Current Version | Previous Version | Text Only | Print | Product List | Glossary On
Versions: 1 2 3 4 5 6 7 8 9 10 11 12 13 14 15 16 17 18 19 20 21 22 23 24 25 26 27
000
ASUS46 KPQR 252210
RWROR

OREGON REGIONAL WEATHER ROUNDUP
NATIONAL WEATHER SERVICE PORTLAND OR
300 PM PDT TUE APR 25 2017

NOTE: "FAIR" INDICATES FEW OR NO CLOUDS BELOW 12,000 FEET WITH
NO SIGNIFICANT WEATHER AND/OR OBSTRUCTIONS TO VISIBILITY.

ORZ001>013-252300-
NORTHWEST OREGON


CITY           SKY/WX    TMP DP  RH WIND       PRES   REMARKS
ASTORIA        LGT RAIN  51  46  83 SE10      29.84F
NEWPORT        CLOUDY    52  50  93 S15       29.90S FOG
PORTLAND       LGT RAIN  54  46  74 S10       29.92F
VANCOUVER WA   LGT RAIN  54  47  77 SE8       29.92F
SCAPPOOSE      RAIN      51  47  86 S7        29.91F FOG
HILLSBORO      LGT RAIN  51  48  89 SE9       29.91F
AURORA         LGT RAIN  53  45  74 SE6       29.92F
MCMINNVILLE    LGT RAIN  53  46  77 S10       29.90F
SALEM          LGT RAIN  53  46  77 S12       29.89F
CORVALLIS      CLOUDY    52  48  87 S5        29.88F
EUGENE         LGT RAIN  54  49  83 S15       29.90F
$$

ORZ021-028-252300-
SOUTHWEST OREGON


CITY           SKY/WX    TMP DP  RH WIND       PRES   REMARKS
NORTH BEND     CLOUDY    54  54 100 SE7       29.93S
BROOKINGS      LGT RAIN  51  51 100 S13G18    30.03F VSB 1/4
ROSEBURG       CLOUDY    56  47  71 S9        29.94F
SEXTON SUMMIT  FOG       41  41 100 S15G26    29.94F VSB<1/4
MEDFORD        CLOUDY    54  44  69 VRB5      29.99S
$$

ORZ014>016-041-252300-
COLUMBIA GORGE


CITY           SKY/WX    TMP DP  RH WIND       PRES   REMARKS
TROUTDALE      LGT RAIN  55  47  74 NE7       29.92F
HOOD RIVER     CLOUDY    54  41  62 NW6       29.92F
THE DALLES     CLOUDY    58  41  53 N7        29.91F
$$

ORZ029>031-041-044-049-050-061>064-502-503-505>511-252300-
EASTERN OREGON


CITY           SKY/WX    TMP DP  RH WIND       PRES   REMARKS
REDMOND        LGT RAIN  50  30  46 SW9       29.91F
BEND           CLOUDY    48  34  57 S13       29.92F
PRINEVILLE     CLOUDY    52  28  40 SW10      29.91F
KLAMATH FALLS  LGT RAIN  44  37  76 SW5       29.99S
LAKEVIEW       CLOUDY    43  30  61 SW16G24   30.00S
HERMISTON      PTSUNNY   62  40  44 W8G17     29.88F
PENDLETON      PTSUNNY   58  41  53 VRB6      29.88F
JOHN DAY       CLOUDY    53  33  47 CALM      29.90F
MEACHAM        CLOUDY    50  32  50 VRB3      29.89F
LA GRANDE      CLOUDY    50  39  66 S7        29.90F
BAKER CITY     CLOUDY    53  35  50 W7        29.89S
BURNS          CLOUDY    50  27  40 SW9       29.93F
ROME             N/A     54  26  34 SW17      29.92S
ONTARIO        CLOUDY    60  32  34 W8G20     29.91F
$$




USA.gov is the U.S. government's official web portal to all federal, state and local government web resources and services.